EHI
0 0 0 0 0 0 0 0 0 0 0 0 0 0 0 0 0 0 0 1 1 2 4 3 2 2 1 7 27 51 51 30 15 9 6 3 1 1 1 0 0 0 0
0 0 0 0 0 0 0 0 0 0 0 0 0 0 0 0 0 0 0 1 1 2 3 2 1 1 1 9 33 51 43 22 16 15 9 3 1 0 0 0 0 0 0
0 0 0 0 0 0 0 0 0 0 0 0 0 0 0 0 1 1 1 1 2 3 2 1 0 0 0 7 24 34 23 10 12 16 9 2 0 0 0 0 0 0 0
0 0 0 0 0 0 0 0 0 0 0 0 0 0 0 1 2 2 2 2 3 3 1 0 0 0 0 2 7 10 6 2 5 7 4 0 0 0 0 0 0 0 0
0 0 0 0 0 0 0 0 0 0 0 0 0 0 0 2 3 3 2 2 2 2 1 0 0 0 0 0 1 3 2 1 1 0 0 0 3 5 3 0 0 0 0
0 0 0 0 0 0 0 0 0 0 0 0 0 0 0 1 2 2 1 1 1 1 0 0 0 0 0 0 4 7 5 2 1 0 0 2 15 27 19 6 1 0 0
0 0 0 0 0 0 0 0 0 0 0 0 0 0 0 0 1 1 0 0 0 0 0 0 0 0 0 1 7 11 6 1 0 0 0 6 30 55 48 22 6 1 0
0 0 0 0 0 0 0 1 1 0 0 0 0 0 0 0 0 0 0 0 0 0 0 0 0 0 0 1 5 7 4 0 0 0 0 6 27 51 59 42 18 4 0
0 0 0 0 0 0 0 2 2 1 0 0 0 1 1 1 0 0 0 0 0 0 0 0 0 0 0 0 1 2 1 0 0 0 0 3 9 22 38 44 29 10 2
0 0 0 0 0 0 0 1 2 1 0 0 0 1 2 1 0 0 0 0 0 0 0 0 0 0 0 0 0 0 0 0 0 0 0 0 0 3 12 23 24 12 4
1 0 0 0 0 0 0 0 0 0 0 0 0 0 1 1 0 0 0 0 0 0 0 0 0 0 0 0 0 0 0 0 0 0 0 0 0 0 2 5 7 6 2
7 4 2 1 0 0 0 0 0 0 0 0 0 0 0 0 0 0 0 0 0 0 0 0 0 0 0 0 0 0 0 0 0 0 0 0 0 0 0 0 0 0 0
22 16 9 6 3 0 0 0 0 0 0 0 0 0 0 0 0 0 0 0 0 0 0 0 0 0 0 0 0 0 0 0 0 0 0 0 0 0 0 0 0 0 0
34 28 21 16 8 1 0 0 0 0 0 0 0 0 0 0 0 0 0 0 0 0 0 0 0 0 0 0 0 0 0 0 0 0 0 0 0 0 0 0 0 0 0
29 26 27 26 14 2 0 0 0 0 0 0 0 0 0 0 0 0 0 0 0 0 0 0 0 0 0 0 0 0 0 0 0 0 0 0 0 0 0 0 0 0 0
13 13 21 25 14 2 0 0 0 0 0 0 0 0 0 0 0 0 0 0 0 0 0 0 0 0 0 0 0 0 0 0 0 0 0 0 0 0 0 0 0 0 0
9 8 12 16 9 1 0 0 0 0 0 0 0 0 0 0 0 0 0 0 0 0 0 0 0 0 0 0 0 0 0 0 0 0 0 0 0 0 0 0 0 0 0
17 15 12 8 3 0 0 0 0 0 0 0 0 0 0 0 0 0 0 0 0 0 0 0 0 0 0 0 0 0 0 0 0 0 0 0 0 0 0 0 0 0 0
20 20 13 4 0 0 0 0 0 0 0 0 0 0 0 0 0 0 0 0 0 0 0 0 0 0 0 0 0 0 0 0 0 0 0 0 0 0 0 0 0 0 0
12 12 8 2 0 0 0 0 0 0 0 0 0 0 0 0 0 0 0 0 0 0 0 0 0 0 0 0 0 0 0 0 0 0 0 0 0 0 0 0 0 0 0
3 3 2 1 0 0 0 0 0 0 0 0 0 0 0 0 0 0 0 0 0 0 0 0 0 0 0 0 0 0 0 0 0 0 0 0 0 0 0 0 0 0 0
0 0 0 0 0 0 0 0 0 0 0 0 0 0 0 0 0 0 0 0 0 0 0 0 0 0 0 0 0 0 0 0 0 0 0 0 0 0 0 0 0 0 0
0 0 0 0 0 0 0 0 0 0 0 0 0 0 0 0 0 0 0 0 0 0 0 0 0 0 0 0 0 0 0 0 0 0 0 0 0 0 0 0 0 0 0
0 0 0 0 0 0 0 0 0 0 0 0 0 0 0 0 0 0 0 0 0 0 0 0 0 0 0 0 0 0 0 0 0 0 0 0 0 0 0 0 0 0 0
0 0 0 0 0 0 0 0 0 0 0 0 0 0 0 0 0 0 0 0 0 0 0 0 0 0 0 0 0 0 0 0 0 0 0 0 0 0 0 0 0 0 0
0 0 0 0 0 0 0 0 0 0 0 0 0 0 0 0 0 0 0 0 0 0 0 0 0 0 0 0 0 0 0 0 0 0 0 0 0 0 0 0 0 0 0
Wind_Speed
5 6 11 11 11 10 9 10 10 10 10 10 10 10 11 10 10 9 9 10 12 13 13 13 13 12 12 11 12 13 13 13 11 10 10 10 9 9 9 10 8 4 9
9 8 13 12 11 10 10 10 10 10 10 10 11 11 11 11 10 10 10 11 12 13 13 12 12 11 11 11 12 13 13 15 14 12 11 9 9 9 10 8 6 4 9
10 8 10 12 11 11 10 10 10 11 11 12 12 12 12 12 11 11 12 12 13 13 12 11 11 11 11 11 12 13 14 15 15 15 12 5 5 9 9 7 6 7 9
10 7 8 12 11 11 10 11 11 11 12 13 13 12 12 12 11 11 12 13 13 12 11 10 10 10 10 10 11 12 13 14 14 14 7 5 5 8 8 7 7 8 8
9 7 9 13 12 11 11 11 12 12 13 14 13 12 11 12 12 11 12 13 13 12 10 9 8 9 10 9 10 11 12 14 14 11 6 5 5 10 9 8 8 8 8
9 7 9 13 13 12 12 12 13 13 14 14 13 12 12 12 12 11 11 12 12 11 9 8 7 8 9 9 10 11 12 15 11 6 6 6 6 12 11 10 9 8 8
9 7 8 13 13 13 13 13 14 14 14 14 13 12 11 12 12 11 11 12 11 9 8 7 7 7 9 10 11 12 14 16 9 6 5 5 8 15 14 12 9 9 8
10 8 8 13 14 14 14 15 15 14 14 14 14 13 12 12 12 11 11 10 9 8 7 6 6 7 8 10 12 15 16 13 9 6 5 5 11 14 15 13 10 9 8
8 7 6 7 9 13 15 15 15 15 14 14 14 14 13 12 13 12 11 9 8 7 6 4 5 5 7 10 13 17 18 15 7 4 6 4 10 12 13 13 11 9 9
8 7 6 6 6 6 8 14 15 15 15 14 14 14 13 12 12 11 10 9 8 7 5 3 2 3 7 10 11 15 15 11 6 5 3 5 10 11 11 11 10 9 8
9 7 7 7 7 7 7 11 12 13 14 13 12 14 11 5 5 6 8 9 8 7 4 2 1 5 8 10 11 15 11 4 5 3 3 8 10 10 10 10 10 8 7
11 10 9 8 8 7 8 7 5 5 7 6 5 6 5 4 4 6 9 11 9 6 4 1 2 5 6 4 7 10 4 5 4 3 4 10 11 11 11 10 10 9 8
14 13 12 11 10 8 5 5 4 3 4 5 6 6 4 4 3 3 3 4 3 3 1 1 3 4 4 3 3 3 4 5 4 3 4 10 11 11 11 11 10 10 10
16 16 14 13 11 8 6 6 5 4 4 4 5 6 4 3 3 3 2 2 2 1 1 2 2 4 2 4 5 5 5 4 4 3 5 11 11 12 11 11 11 10 10
17 17 16 15 13 9 7 6 6 6 6 6 5 5 6 4 4 4 3 3 3 2 2 3 2 2 3 5 6 6 5 6 5 4 4 12 13 13 12 12 12 12 12
14 14 13 15 13 10 8 7 7 6 5 5 6 7 7 5 5 5 4 3 3 3 2 3 2 1 1 4 5 6 6 5 4 5 4 8 15 15 15 15 14 14 14
10 8 10 13 12 11 10 9 8 8 7 7 8 8 7 6 6 5 4 4 4 3 3 3 2 1 2 3 4 5 5 4 4 4 5 4 7 14 17 18 18 17 16
14 13 12 12 12 13 10 8 7 7 7 7 7 7 7 8 7 6 5 4 4 4 4 4 2 2 2 3 3 3 4 4 4 3 3 4 4 6 11 18 18 18 18
12 13 12 10 11 11 9 6 7 6 6 6 6 6 6 8 9 7 6 5 5 4 4 4 2 2 3 4 4 4 4 4 4 4 3 4 5 5 5 11 17 18 18
7 8 9 7 6 6 5 4 4 4 4 4 4 5 7 8 10 7 6 6 6 5 4 4 4 2 3 4 5 4 4 3 4 3 3 3 3 5 5 5 6 10 17
6 6 6 6 5 5 4 4 4 4 3 2 3 5 6 8 8 6 7 6 6 6 6 7 4 4 2 2 4 3 4 4 4 3 3 3 4 5 5 5 5 4 6
5 5 5 5 4 4 3 2 2 2 1 2 2 4 6 7 8 7 8 7 6 6 7 6 5 3 2 3 5 4 2 3 4 3 2 4 5 5 6 7 5 6 5
5 6 7 7 6 5 3 1 1 2 2 2 1 2 4 7 8 8 8 7 7 6 7 7 6 6 4 2 3 5 5 4 1 2 2 2 5 5 4 4 5 6 6
4 5 6 7 6 5 4 3 2 2 2 2 1 1 2 6 7 8 7 7 7 6 8 9 8 4 6 4 3 1 2 5 5 2 2 2 3 5 4 4 5 5 5
6 5 5 6 6 5 6 5 4 3 2 3 3 3 4 3 3 4 5 5 5 4 5 5 6 5 4 5 4 3 2 1 3 5 3 1 2 2 3 4 4 3 4
6 6 5 5 5 6 6 6 6 7 7 7 6 5 3 3 2 1 2 3 4 3 4 4 5 6 6 5 4 4 4 4 4 4 4 4 2 1 2 2 3 3 3
Wind_Direction
166 176 169 160 151 145 145 144 145 145 143 140 134 127 117 115 114 106 98 95 100 97 91 87 83 79 75 69 65 62 62 64 68 73 77 81 75 63 68 74 67 68 96
163 170 166 160 152 148 147 146 145 144 141 136 133 130 123 120 118 116 110 104 103 98 92 88 85 80 74 68 61 56 62 70 76 77 73 68 75 80 85 87 72 79 92
155 165 164 157 152 151 151 149 145 140 134 133 134 128 120 119 121 119 115 112 108 100 94 92 90 80 71 64 60 58 70 77 78 73 62 42 67 92 97 103 93 94 95
154 159 160 153 152 155 155 150 144 136 132 132 132 127 122 122 120 118 118 115 109 104 102 93 89 84 74 62 58 61 77 81 74 69 55 37 39 81 96 102 105 105 102
156 160 161 153 155 156 155 150 142 137 135 133 134 131 127 121 117 118 118 119 112 107 103 94 85 80 75 62 53 59 84 86 75 65 48 37 36 62 80 94 102 110 106
150 155 157 153 155 153 151 147 143 140 138 139 139 135 130 124 120 116 118 123 118 111 105 96 86 77 72 63 52 56 88 91 74 57 43 34 41 57 70 82 91 96 98
147 149 152 155 155 152 150 146 144 142 142 143 139 132 130 126 122 119 118 122 121 116 107 95 84 79 75 64 52 57 97 95 77 56 43 38 50 57 63 75 85 89 90
147 145 148 154 153 151 148 147 145 145 148 146 139 135 133 131 128 125 123 125 126 116 102 93 87 86 80 64 58 74 95 93 79 65 49 44 57 56 56 63 74 78 83
141 141 138 146 150 152 150 149 147 149 153 151 145 140 137 135 131 131 133 138 140 128 115 111 105 92 69 60 74 88 86 83 72 55 58 49 63 60 56 54 59 67 72
147 149 144 141 142 145 150 152 151 154 157 156 151 147 142 138 135 139 143 151 153 143 133 125 96 60 46 48 77 90 81 75 63 49 35 62 69 69 64 58 55 58 69
158 157 159 154 150 149 151 161 159 160 162 161 158 157 146 132 134 143 157 164 164 158 148 141 20 19 28 36 78 91 81 72 65 47 34 63 69 73 71 66 61 60 67
170 171 170 165 161 162 165 156 159 159 157 151 157 157 147 146 157 161 176 172 168 164 160 145 14 4 19 32 84 94 82 73 60 41 47 65 69 74 75 70 66 64 66
177 178 177 171 168 172 167 157 158 158 155 155 164 165 157 151 161 157 163 169 164 153 92 28 3 349 358 37 92 97 87 76 61 43 51 73 74 74 74 73 71 69 67
177 184 178 174 172 174 167 167 166 167 166 170 178 175 160 157 158 157 162 162 153 141 125 62 17 349 27 99 111 101 81 73 62 45 54 74 75 75 74 74 74 74 72
179 185 178 174 175 172 168 175 175 179 183 180 182 186 171 163 159 164 178 175 174 164 142 106 55 25 109 109 105 105 89 74 67 55 47 67 71 74 77 77 75 75 74
177 181 172 172 175 174 174 180 181 182 185 185 190 191 178 167 165 167 177 180 180 171 154 120 124 109 87 94 101 108 106 92 77 66 51 55 63 69 72 71 71 72 70
150 156 167 172 169 173 179 185 186 183 182 190 196 192 177 166 176 164 158 177 182 166 139 117 119 112 99 90 96 111 113 109 101 81 65 54 52 61 65 65 65 65 67
153 156 170 179 176 177 180 187 188 184 184 191 193 191 178 168 174 154 151 177 176 145 134 129 123 135 106 97 92 99 104 113 119 105 77 70 67 62 61 64 59 56 56
161 158 167 174 184 182 172 182 191 185 191 194 189 183 173 162 170 158 157 167 158 140 146 149 132 138 126 115 107 95 94 106 124 127 108 94 86 75 61 63 60 55 50
149 154 160 162 172 164 151 163 180 190 204 199 201 193 169 160 172 163 144 151 150 147 156 150 130 131 131 131 111 83 62 74 94 110 111 96 89 79 60 47 43 46 48
136 144 154 157 162 153 150 157 170 198 207 202 217 205 170 163 171 154 135 145 154 159 158 144 126 143 120 111 94 61 21 23 49 60 82 92 91 89 75 59 51 40 33
150 159 159 167 167 166 160 152 149 165 185 197 208 193 169 161 157 147 143 149 152 142 134 134 136 141 142 152 132 111 66 8 358 17 52 98 100 96 83 72 60 49 33
156 164 172 180 183 178 170 128 80 74 50 79 116 186 163 147 147 148 150 144 146 147 151 155 164 158 159 184 160 140 147 180 210 4 18 71 102 99 95 83 66 52 39
172 161 158 175 192 195 185 187 171 154 168 157 148 221 129 132 144 155 156 152 152 156 167 176 172 164 153 169 194 166 149 155 146 141 37 30 91 107 112 100 82 66 48
166 167 170 176 192 195 196 197 166 148 139 121 105 83 86 97 118 151 158 153 157 158 178 187 171 170 167 171 172 157 138 124 125 133 152 163 54 64 110 115 106 87 63
169 172 174 180 194 191 189 178 162 158 149 136 117 104 105 111 89 94 177 168 158 154 173 193 189 192 193 191 188 166 162 161 172 145 144 152 133 104 98 108 117 106 83